TimeEST,TemperatureF,Dew PointF,Humidity,Sea Level PressureIn,VisibilityMPH,Wind Direction,Wind SpeedMPH,Gust SpeedMPH,PrecipitationIn,Events,Conditions,WindDirDegrees,DateUTC
12:00 AM,28.4,23.0,80,30.08,10.0,WSW,11.5,17.3,N/A,,Mostly Cloudy,240,2013-01-06 05:00:00
12:20 AM,28.4,23.0,80,30.07,10.0,WSW,9.2,-,N/A,,Mostly Cloudy,250,2013-01-06 05:20:00
12:40 AM,28.4,23.0,80,30.07,10.0,WSW,9.2,-,N/A,,Overcast,250,2013-01-06 05:40:00
1:05 AM,30.2,23.0,75,30.06,10.0,WSW,9.2,16.1,N/A,,Overcast,250,2013-01-06 06:05:00
1:25 AM,30.2,23.0,75,30.06,10.0,WSW,10.4,-,N/A,,Overcast,250,2013-01-06 06:25:00
1:45 AM,30.2,23.0,75,30.05,10.0,West,8.1,-,N/A,,Overcast,260,2013-01-06 06:45:00
2:05 AM,30.2,23.0,75,30.05,10.0,WSW,12.7,18.4,N/A,,Overcast,250,2013-01-06 07:05:00
2:30 AM,30.2,23.0,75,30.05,10.0,WSW,10.4,-,N/A,,Overcast,250,2013-01-06 07:30:00
2:50 AM,30.2,23.0,75,30.04,10.0,WSW,11.5,18.4,N/A,,Overcast,250,2013-01-06 07:50:00
3:10 AM,30.2,24.8,80,30.04,10.0,West,13.8,18.4,N/A,,Overcast,260,2013-01-06 08:10:00
3:30 AM,30.2,24.8,80,30.04,10.0,West,11.5,18.4,N/A,,Overcast,260,2013-01-06 08:30:00
3:55 AM,28.4,24.8,86,30.03,10.0,West,10.4,17.3,N/A,,Overcast,260,2013-01-06 08:55:00
4:15 AM,28.4,24.8,86,30.02,10.0,WSW,10.4,18.4,N/A,,Overcast,250,2013-01-06 09:15:00
4:35 AM,28.4,24.8,86,30.01,10.0,West,11.5,17.3,N/A,,Overcast,260,2013-01-06 09:35:00
5:00 AM,30.2,24.8,80,30.01,10.0,WSW,12.7,19.6,N/A,,Overcast,250,2013-01-06 10:00:00
5:20 AM,28.4,24.8,86,30.00,10.0,WSW,10.4,20.7,N/A,,Overcast,250,2013-01-06 10:20:00
5:40 AM,28.4,24.8,86,29.99,10.0,WSW,12.7,-,N/A,,Overcast,250,2013-01-06 10:40:00
6:00 AM,28.4,24.8,86,30.01,10.0,WSW,10.4,17.3,N/A,,Overcast,250,2013-01-06 11:00:00
6:25 AM,28.4,24.8,86,30.01,10.0,WSW,11.5,18.4,N/A,,Overcast,250,2013-01-06 11:25:00
7:05 AM,28.4,26.6,93,30.01,10.0,WSW,8.1,19.6,N/A,,Overcast,250,2013-01-06 12:05:00
7:25 AM,28.4,26.6,93,30.01,10.0,WSW,6.9,-,N/A,,Overcast,250,2013-01-06 12:25:00
7:50 AM,28.4,26.6,93,30.00,10.0,WSW,9.2,17.3,N/A,,Overcast,250,2013-01-06 12:50:00
8:10 AM,28.4,26.6,93,30.01,10.0,WSW,9.2,16.1,N/A,,Overcast,240,2013-01-06 13:10:00
8:30 AM,30.2,26.6,86,30.01,10.0,WSW,11.5,17.3,N/A,,Overcast,240,2013-01-06 13:30:00
8:50 AM,30.2,26.6,86,30.01,10.0,SW,10.4,17.3,N/A,,Overcast,230,2013-01-06 13:50:00
9:15 AM,30.2,26.6,86,30.01,10.0,WSW,15.0,19.6,N/A,,Overcast,250,2013-01-06 14:15:00
9:35 AM,30.2,26.6,86,30.02,10.0,WSW,12.7,-,N/A,,Overcast,240,2013-01-06 14:35:00
10:15 AM,30.2,26.6,86,30.02,10.0,WSW,9.2,-,N/A,,Overcast,240,2013-01-06 15:15:00
10:40 AM,30.2,26.6,86,30.02,10.0,WSW,9.2,16.1,N/A,,Overcast,240,2013-01-06 15:40:00
11:00 AM,32.0,26.6,80,30.01,10.0,SW,11.5,17.3,N/A,,Overcast,230,2013-01-06 16:00:00
11:20 AM,32.0,26.6,80,30.01,10.0,WSW,9.2,20.7,N/A,,Overcast,240,2013-01-06 16:20:00
12:05 PM,32.0,26.6,80,29.97,10.0,WSW,10.4,19.6,N/A,,Overcast,250,2013-01-06 17:05:00
12:25 PM,32.0,26.6,80,29.96,10.0,WSW,11.5,18.4,N/A,,Overcast,240,2013-01-06 17:25:00
12:45 PM,32.0,26.6,80,29.95,10.0,WSW,5.8,16.1,N/A,,Overcast,240,2013-01-06 17:45:00
1:30 PM,32.0,26.6,80,29.94,10.0,SW,10.4,17.3,N/A,,Overcast,230,2013-01-06 18:30:00
1:50 PM,32.0,26.6,80,29.95,10.0,SW,8.1,-,N/A,,Overcast,230,2013-01-06 18:50:00
2:10 PM,32.0,26.6,80,29.94,10.0,WSW,9.2,19.6,N/A,,Overcast,240,2013-01-06 19:10:00
2:30 PM,32.0,26.6,80,29.95,10.0,WSW,9.2,16.1,N/A,,Overcast,240,2013-01-06 19:30:00
2:55 PM,32.0,26.6,80,29.95,10.0,WSW,8.1,-,N/A,,Overcast,250,2013-01-06 19:55:00
3:15 PM,32.0,26.6,80,29.95,10.0,WSW,8.1,17.3,N/A,,Overcast,240,2013-01-06 20:15:00
3:35 PM,32.0,26.6,80,29.95,10.0,WSW,8.1,-,N/A,,Overcast,240,2013-01-06 20:35:00
3:55 PM,32.0,26.6,80,29.95,10.0,WSW,12.7,16.1,N/A,,Overcast,250,2013-01-06 20:55:00
4:20 PM,32.0,28.4,87,29.96,10.0,WSW,13.8,19.6,N/A,,Overcast,250,2013-01-06 21:20:00
5:00 PM,30.2,28.4,93,29.97,10.0,WSW,12.7,17.3,N/A,,Overcast,250,2013-01-06 22:00:00
5:20 PM,30.2,28.4,93,29.97,10.0,WSW,9.2,-,N/A,,Overcast,250,2013-01-06 22:20:00
5:45 PM,30.2,28.4,93,29.98,10.0,WSW,9.2,19.6,N/A,,Overcast,250,2013-01-06 22:45:00
6:05 PM,30.2,28.4,93,29.99,7.0,WSW,12.7,20.7,N/A,,Overcast,250,2013-01-06 23:05:00
7:30 PM,30.2,30.2,100,30.01,4.0,West,12.7,16.1,N/A,,Overcast,260,2013-01-07 00:30:00
7:50 PM,30.2,30.2,100,30.01,2.5,West,10.4,16.1,N/A,,Overcast,260,2013-01-07 00:50:00
8:10 PM,30.2,30.2,100,30.01,5.0,West,9.2,17.3,N/A,,Overcast,260,2013-01-07 01:10:00
8:35 PM,30.2,30.2,100,30.02,3.0,West,10.4,-,N/A,,Overcast,260,2013-01-07 01:35:00
8:55 PM,30.2,30.2,100,30.01,4.0,West,9.2,-,N/A,,Overcast,260,2013-01-07 01:55:00
9:15 PM,30.2,30.2,100,30.02,2.5,West,12.7,18.4,N/A,,Overcast,270,2013-01-07 02:15:00
10:00 PM,30.2,30.2,100,30.03,3.0,WNW,10.4,19.6,N/A,,Overcast,300,2013-01-07 03:00:00
10:20 PM,30.2,30.2,100,30.04,3.0,West,13.8,20.7,N/A,,Overcast,280,2013-01-07 03:20:00
10:40 PM,28.4,28.4,100,30.05,3.0,WNW,9.2,20.7,N/A,,Overcast,290,2013-01-07 03:40:00
11:00 PM,28.4,28.4,100,30.06,3.0,West,11.5,20.7,N/A,,Overcast,280,2013-01-07 04:00:00
11:05 PM,28.4,28.4,100,30.06,4.0,WNW,13.8,21.9,N/A,,Overcast,290,2013-01-07 04:05:00
11:25 PM,28.4,28.4,100,30.08,5.0,WNW,10.4,19.6,N/A,,Overcast,290,2013-01-07 04:25:00
11:45 PM,28.4,28.4,100,30.08,5.0,WNW,15.0,23.0,N/A,,Overcast,290,2013-01-07 04:45:00